Time,TemperatureF,DewpointF,PressureIn,WindDirection,WindDirectionDegrees,WindSpeedMPH,WindSpeedGustMPH,Humidity,HourlyPrecipIn,Conditions,Clouds,dailyrainin,SolarRadiationWatts/m^2,SoftwareType,DateUTC
2013-09-16 00:01:00,57.4,52.9,29.98,North,-999,2.0,7.0,85,0.00,,,0.00,0.00,VWS V14.01,2013-09-16 06:01:00,
2013-09-16 00:05:00,57.4,52.9,29.97,North,-999,3.0,9.0,85,0.00,,,0.00,0.00,VWS V14.01,2013-09-16 06:05:00,
2013-09-16 00:10:00,57.3,52.8,29.97,North,-999,2.0,8.0,85,0.00,,,0.00,0.00,VWS V14.01,2013-09-16 06:10:00,
2013-09-16 00:15:00,57.4,52.9,29.97,North,-999,5.0,9.0,85,0.00,,,0.00,0.00,VWS V14.01,2013-09-16 06:15:00,
2013-09-16 00:20:00,57.4,52.6,29.97,North,-999,0.0,6.0,84,0.00,,,0.00,0.00,VWS V14.01,2013-09-16 06:20:00,
2013-09-16 00:25:00,57.4,52.6,29.97,North,-999,0.0,6.0,84,0.00,,,0.00,0.00,VWS V14.01,2013-09-16 06:25:00,
2013-09-16 00:30:00,57.3,52.8,29.97,North,-999,0.0,7.0,85,0.00,,,0.00,0.00,VWS V14.01,2013-09-16 06:30:00,
2013-09-16 00:35:00,57.1,52.6,29.97,North,-999,0.0,7.0,85,0.00,,,0.00,0.00,VWS V14.01,2013-09-16 06:35:00,
2013-09-16 00:40:00,57.1,52.6,29.97,North,-999,0.0,0.0,85,0.00,,,0.00,0.00,VWS V14.01,2013-09-16 06:40:00,
2013-09-16 00:45:00,57.0,52.5,29.97,North,-999,0.0,0.0,85,0.00,,,0.00,0.00,VWS V14.01,2013-09-16 06:45:00,
2013-09-16 00:50:00,56.9,52.4,29.97,North,-999,0.0,0.0,85,0.00,,,0.00,0.00,VWS V14.01,2013-09-16 06:50:00,
2013-09-16 00:55:00,56.8,52.7,29.97,North,-999,0.0,0.0,86,0.00,,,0.00,0.00,VWS V14.01,2013-09-16 06:55:00,
2013-09-16 01:00:00,56.6,52.5,29.97,North,-999,0.0,0.0,86,0.00,,,0.00,0.00,VWS V14.01,2013-09-16 07:00:00,
2013-09-16 01:05:00,56.5,52.4,29.97,North,-999,0.0,0.0,86,0.00,,,0.00,0.00,VWS V14.01,2013-09-16 07:05:00,
2013-09-16 01:10:00,56.4,52.3,29.97,North,-999,0.0,0.0,86,0.00,,,0.00,0.00,VWS V14.01,2013-09-16 07:10:00,
2013-09-16 01:15:00,56.3,52.5,29.97,North,-999,0.0,0.0,87,0.00,,,0.00,0.00,VWS V14.01,2013-09-16 07:15:00,
2013-09-16 01:20:00,56.2,52.4,29.96,North,-999,0.0,0.0,87,0.00,,,0.00,0.00,VWS V14.01,2013-09-16 07:20:00,
2013-09-16 01:25:00,56.3,52.5,29.96,North,-999,0.0,2.0,87,0.00,,,0.00,0.00,VWS V14.01,2013-09-16 07:25:00,
2013-09-16 01:30:00,56.5,52.4,29.96,North,-999,6.0,7.0,86,0.00,,,0.00,0.00,VWS V14.01,2013-09-16 07:30:00,
2013-09-16 01:35:00,56.8,52.7,29.96,North,-999,5.0,9.0,86,0.00,,,0.00,0.00,VWS V14.01,2013-09-16 07:35:00,
2013-09-16 01:40:00,57.2,52.7,29.96,North,-999,4.0,10.0,85,0.00,,,0.00,0.00,VWS V14.01,2013-09-16 07:40:00,
2013-09-16 01:45:00,57.4,52.6,29.96,North,-999,0.0,10.0,84,0.00,,,0.00,0.00,VWS V14.01,2013-09-16 07:45:00,
2013-09-16 01:50:00,57.3,52.5,29.96,North,-999,0.0,0.0,84,0.00,,,0.00,0.00,VWS V14.01,2013-09-16 07:50:00,
2013-09-16 01:55:00,56.5,52.0,29.96,North,-999,0.0,0.0,85,0.00,,,0.00,0.00,VWS V14.01,2013-09-16 07:55:00,
2013-09-16 02:00:00,56.0,51.9,29.96,North,-999,0.0,0.0,86,0.00,,,0.00,0.00,VWS V14.01,2013-09-16 08:00:00,
2013-09-16 02:05:00,55.6,52.1,29.96,North,-999,0.0,0.0,88,0.00,,,0.00,0.00,VWS V14.01,2013-09-16 08:05:00,
2013-09-16 02:10:00,55.7,52.2,29.95,North,-999,0.0,0.0,88,0.00,,,0.00,0.00,VWS V14.01,2013-09-16 08:10:00,
2013-09-16 02:15:00,55.8,52.0,29.95,North,-999,0.0,0.0,87,0.00,,,0.00,0.00,VWS V14.01,2013-09-16 08:15:00,
2013-09-16 02:20:00,55.8,52.0,29.95,North,-999,0.0,0.0,87,0.00,,,0.00,0.00,VWS V14.01,2013-09-16 08:20:00,
2013-09-16 02:25:00,55.8,52.0,29.95,North,-999,0.0,4.0,87,0.00,,,0.00,0.00,VWS V14.01,2013-09-16 08:25:00,
2013-09-16 02:30:00,55.7,51.9,29.95,North,-999,0.0,0.0,87,0.00,,,0.00,0.00,VWS V14.01,2013-09-16 08:30:00,
2013-09-16 02:35:00,55.6,52.1,29.95,North,-999,0.0,0.0,88,0.00,,,0.00,0.00,VWS V14.01,2013-09-16 08:35:00,
2013-09-16 02:40:00,55.4,51.9,29.95,North,-999,0.0,0.0,88,0.00,,,0.00,0.00,VWS V14.01,2013-09-16 08:40:00,
2013-09-16 02:45:00,55.4,51.9,29.95,North,-999,0.0,3.0,88,0.00,,,0.00,0.00,VWS V14.01,2013-09-16 08:45:00,
2013-09-16 02:50:00,55.6,52.1,29.95,North,-999,0.0,0.0,88,0.00,,,0.00,0.00,VWS V14.01,2013-09-16 08:50:00,
2013-09-16 02:55:00,55.9,52.4,29.94,North,-999,0.0,0.0,88,0.00,,,0.00,0.00,VWS V14.01,2013-09-16 08:55:00,
2013-09-16 03:00:00,56.0,52.2,29.94,North,-999,0.0,0.0,87,0.00,,,0.00,0.00,VWS V14.01,2013-09-16 09:00:00,
2013-09-16 03:05:00,55.8,52.0,29.94,North,-999,0.0,0.0,87,0.00,,,0.00,0.00,VWS V14.01,2013-09-16 09:05:00,
2013-09-16 03:10:00,55.5,51.7,29.94,North,-999,0.0,0.0,87,0.00,,,0.00,0.00,VWS V14.01,2013-09-16 09:10:00,
2013-09-16 03:15:00,54.6,50.8,29.94,North,-999,0.0,0.0,87,0.00,,,0.00,0.00,VWS V14.01,2013-09-16 09:15:00,
2013-09-16 03:20:00,53.9,50.7,29.94,North,-999,0.0,0.0,89,0.00,,,0.00,0.00,VWS V14.01,2013-09-16 09:20:00,
2013-09-16 03:25:00,53.8,50.9,29.94,North,-999,0.0,0.0,90,0.00,,,0.00,0.00,VWS V14.01,2013-09-16 09:25:00,
2013-09-16 03:30:00,53.8,51.2,29.94,North,-999,0.0,0.0,91,0.00,,,0.00,0.00,VWS V14.01,2013-09-16 09:30:00,
2013-09-16 03:35:00,53.8,51.2,29.94,North,-999,0.0,0.0,91,0.00,,,0.00,0.00,VWS V14.01,2013-09-16 09:35:00,
2013-09-16 03:40:00,53.2,51.2,29.94,North,-999,3.0,6.0,93,0.00,,,0.00,0.00,VWS V14.01,2013-09-16 09:40:00,
2013-09-16 03:45:00,52.8,50.2,29.94,North,-999,0.0,6.0,91,0.00,,,0.00,0.00,VWS V14.01,2013-09-16 09:45:00,
2013-09-16 03:50:00,52.7,50.5,29.94,North,-999,0.0,0.0,92,0.00,,,0.00,0.00,VWS V14.01,2013-09-16 09:50:00,
2013-09-16 03:55:00,52.9,50.9,29.94,North,-999,0.0,0.0,93,0.00,,,0.00,0.00,VWS V14.01,2013-09-16 09:55:00,
2013-09-16 04:00:00,53.1,50.8,29.94,North,-999,0.0,0.0,92,0.00,,,0.00,0.00,VWS V14.01,2013-09-16 10:00:00,
2013-09-16 04:05:00,52.8,50.2,29.94,North,-999,0.0,0.0,91,0.00,,,0.00,0.00,VWS V14.01,2013-09-16 10:05:00,
2013-09-16 04:10:00,52.5,50.2,29.94,North,-999,0.0,0.0,92,0.00,,,0.00,0.00,VWS V14.01,2013-09-16 10:10:00,
2013-09-16 04:15:00,52.4,50.2,29.94,North,-999,0.0,0.0,92,0.00,,,0.00,0.00,VWS V14.01,2013-09-16 10:15:00,
2013-09-16 04:20:00,52.2,50.2,29.94,North,-999,0.0,0.0,93,0.00,,,0.00,0.00,VWS V14.01,2013-09-16 10:20:00,
2013-09-16 04:25:00,52.2,50.2,29.94,North,-999,0.0,0.0,93,0.00,,,0.00,0.00,VWS V14.01,2013-09-16 10:25:00,
2013-09-16 04:30:00,52.0,50.0,29.94,North,-999,0.0,4.0,93,0.00,,,0.00,0.00,VWS V14.01,2013-09-16 10:30:00,
2013-09-16 04:35:00,52.3,50.6,29.94,North,-999,0.0,9.0,94,0.00,,,0.00,0.00,VWS V14.01,2013-09-16 10:35:00,
2013-09-16 04:40:00,52.3,50.3,29.94,North,-999,0.0,0.0,93,0.00,,,0.00,0.00,VWS V14.01,2013-09-16 10:40:00,
2013-09-16 04:45:00,52.4,50.4,29.94,North,-999,0.0,0.0,93,0.00,,,0.00,0.00,VWS V14.01,2013-09-16 10:45:00,
2013-09-16 04:50:00,52.4,50.4,29.94,North,-999,0.0,0.0,93,0.00,,,0.00,0.00,VWS V14.01,2013-09-16 10:50:00,
2013-09-16 04:55:00,52.5,50.5,29.94,North,-999,5.0,6.0,93,0.00,,,0.00,0.00,VWS V14.01,2013-09-16 10:55:00,
2013-09-16 05:00:00,52.5,50.5,29.94,North,-999,0.0,0.0,93,0.00,,,0.00,0.00,VWS V14.01,2013-09-16 11:00:00,
2013-09-16 05:05:00,52.5,50.5,29.94,North,-999,0.0,0.0,93,0.00,,,0.00,0.00,VWS V14.01,2013-09-16 11:05:00,
2013-09-16 05:10:00,52.7,50.7,29.94,North,-999,0.0,0.0,93,0.00,,,0.00,0.00,VWS V14.01,2013-09-16 11:10:00,
2013-09-16 05:15:00,52.7,50.7,29.94,North,-999,0.0,0.0,93,0.00,,,0.00,0.00,VWS V14.01,2013-09-16 11:15:00,
2013-09-16 05:20:00,52.3,50.3,29.94,North,-999,0.0,6.0,93,0.00,,,0.00,0.00,VWS V14.01,2013-09-16 11:20:00,
2013-09-16 05:25:00,52.1,50.1,29.94,North,-999,0.0,6.0,93,0.00,,,0.00,0.00,VWS V14.01,2013-09-16 11:25:00,
2013-09-16 05:30:00,52.0,50.0,29.93,North,-999,0.0,0.0,93,0.00,,,0.00,0.00,VWS V14.01,2013-09-16 11:30:00,
2013-09-16 05:34:00,51.9,49.9,29.94,North,-999,0.0,0.0,93,0.00,,,0.00,0.00,VWS V14.01,2013-09-16 11:34:00,
2013-09-16 05:39:00,51.7,49.8,29.94,North,-999,5.0,5.0,93,0.00,,,0.00,0.00,VWS V14.01,2013-09-16 11:39:00,
2013-09-16 05:44:00,51.5,49.8,29.94,North,-999,4.0,7.0,94,0.00,,,0.00,0.00,VWS V14.01,2013-09-16 11:44:00,
2013-09-16 05:49:00,51.5,49.8,29.94,North,-999,0.0,5.0,94,0.00,,,0.00,0.00,VWS V14.01,2013-09-16 11:49:00,
2013-09-16 05:54:00,51.5,49.8,29.94,North,-999,0.0,5.0,94,0.00,,,0.00,0.00,VWS V14.01,2013-09-16 11:54:00,
2013-09-16 05:59:00,51.4,49.7,29.94,North,-999,0.0,0.0,94,0.00,,,0.00,0.00,VWS V14.01,2013-09-16 11:59:00,
2013-09-16 06:04:00,51.5,49.8,29.94,North,-999,0.0,6.0,94,0.00,,,0.00,0.00,VWS V14.01,2013-09-16 12:04:00,
2013-09-16 06:09:00,51.4,49.7,29.94,North,-999,0.0,0.0,94,0.00,,,0.00,0.00,VWS V14.01,2013-09-16 12:09:00,
2013-09-16 06:14:00,51.4,49.7,29.93,North,-999,0.0,0.0,94,0.00,,,0.00,0.00,VWS V14.01,2013-09-16 12:14:00,
2013-09-16 06:19:00,51.4,49.7,29.93,North,-999,0.0,0.0,94,0.00,,,0.00,0.00,VWS V14.01,2013-09-16 12:19:00,
2013-09-16 06:24:00,51.7,50.3,29.93,North,-999,0.0,0.0,95,0.00,,,0.00,0.00,VWS V14.01,2013-09-16 12:24:00,
2013-09-16 06:29:00,51.9,50.2,29.93,North,-999,4.0,6.0,94,0.00,,,0.00,0.00,VWS V14.01,2013-09-16 12:29:00,
2013-09-16 06:34:00,52.2,50.5,29.93,North,-999,6.0,10.0,94,0.00,,,0.00,0.00,VWS V14.01,2013-09-16 12:34:00,
2013-09-16 06:39:00,52.6,50.9,29.93,North,-999,3.0,7.0,94,0.00,,,0.00,0.00,VWS V14.01,2013-09-16 12:39:00,
2013-09-16 06:44:00,52.8,50.8,29.93,North,-999,0.0,7.0,93,0.00,,,0.00,0.00,VWS V14.01,2013-09-16 12:44:00,
2013-09-16 06:49:00,52.9,50.9,29.93,North,-999,0.0,0.0,93,0.00,,,0.00,0.00,VWS V14.01,2013-09-16 12:49:00,
2013-09-16 06:54:00,52.8,50.8,29.93,North,-999,0.0,0.0,93,0.00,,,0.00,0.00,VWS V14.01,2013-09-16 12:54:00,
2013-09-16 06:59:00,52.0,49.5,29.93,North,-999,0.0,0.0,91,0.00,,,0.00,5.00,VWS V14.01,2013-09-16 12:59:00,
2013-09-16 07:04:00,51.4,49.2,29.93,North,-999,0.0,0.0,92,0.00,,,0.00,7.00,VWS V14.01,2013-09-16 13:04:00,
2013-09-16 07:09:00,51.2,49.2,29.94,North,-999,0.0,0.0,93,0.00,,,0.00,11.00,VWS V14.01,2013-09-16 13:09:00,
2013-09-16 07:14:00,51.3,49.6,29.94,North,-999,0.0,0.0,94,0.00,,,0.00,12.00,VWS V14.01,2013-09-16 13:14:00,
2013-09-16 07:19:00,51.4,49.7,29.94,North,-999,0.0,0.0,94,0.00,,,0.00,19.00,VWS V14.01,2013-09-16 13:19:00,
2013-09-16 07:24:00,51.5,49.8,29.94,North,-999,0.0,0.0,94,0.00,,,0.00,32.00,VWS V14.01,2013-09-16 13:24:00,
2013-09-16 07:29:00,51.8,50.1,29.93,North,-999,0.0,0.0,94,0.00,,,0.00,42.00,VWS V14.01,2013-09-16 13:29:00,
2013-09-16 07:34:00,52.1,50.4,29.94,North,-999,5.0,5.0,94,0.00,,,0.00,54.00,VWS V14.01,2013-09-16 13:34:00,
2013-09-16 07:39:00,52.2,50.5,29.94,North,-999,2.0,4.0,94,0.00,,,0.00,69.00,VWS V14.01,2013-09-16 13:39:00,
2013-09-16 07:44:00,52.5,50.8,29.94,North,-999,2.0,4.0,94,0.00,,,0.00,81.00,VWS V14.01,2013-09-16 13:44:00,
2013-09-16 07:49:00,52.8,51.1,29.93,North,-999,4.0,5.0,94,0.00,,,0.00,95.00,VWS V14.01,2013-09-16 13:49:00,
2013-09-16 07:54:00,53.1,51.1,29.94,North,-999,0.0,5.0,93,0.00,,,0.00,109.00,VWS V14.01,2013-09-16 13:54:00,
2013-09-16 07:59:00,53.4,51.4,29.93,North,-999,0.0,0.0,93,0.00,,,0.00,125.00,VWS V14.01,2013-09-16 13:59:00,
2013-09-16 08:04:00,53.7,51.7,29.93,North,-999,0.0,0.0,93,0.00,,,0.00,141.00,VWS V14.01,2013-09-16 14:04:00,
2013-09-16 08:09:00,54.1,51.8,29.93,North,-999,0.0,3.0,92,0.00,,,0.00,158.00,VWS V14.01,2013-09-16 14:09:00,
2013-09-16 08:14:00,54.4,52.1,29.93,North,-999,0.0,4.0,92,0.00,,,0.00,172.00,VWS V14.01,2013-09-16 14:14:00,
2013-09-16 08:19:00,54.9,52.3,29.93,North,-999,0.0,0.0,91,0.00,,,0.00,188.00,VWS V14.01,2013-09-16 14:19:00,
2013-09-16 08:24:00,55.3,52.7,29.93,North,-999,0.0,0.0,91,0.00,,,0.00,202.00,VWS V14.01,2013-09-16 14:24:00,
2013-09-16 08:29:00,55.8,52.9,29.93,North,-999,0.0,0.0,90,0.00,,,0.00,218.00,VWS V14.01,2013-09-16 14:29:00,
2013-09-16 08:34:00,56.2,53.0,29.93,North,-999,0.0,3.0,89,0.00,,,0.00,232.00,VWS V14.01,2013-09-16 14:34:00,
2013-09-16 08:39:00,56.3,52.8,29.93,North,-999,0.0,2.0,88,0.00,,,0.00,248.00,VWS V14.01,2013-09-16 14:39:00,
2013-09-16 08:44:00,56.6,53.1,29.93,North,-999,0.0,2.0,88,0.00,,,0.00,262.00,VWS V14.01,2013-09-16 14:44:00,
2013-09-16 08:49:00,57.0,53.2,29.93,North,-999,0.0,4.0,87,0.00,,,0.00,276.00,VWS V14.01,2013-09-16 14:49:00,
2013-09-16 08:54:00,57.3,53.2,29.93,North,-999,0.0,4.0,86,0.00,,,0.00,292.00,VWS V14.01,2013-09-16 14:54:00,
2013-09-16 08:59:00,57.7,53.5,29.93,North,-999,0.0,0.0,86,0.00,,,0.00,308.00,VWS V14.01,2013-09-16 14:59:00,
2013-09-16 09:04:00,58.4,53.9,29.93,North,-999,0.0,0.0,85,0.00,,,0.00,322.00,VWS V14.01,2013-09-16 15:04:00,
2013-09-16 09:09:00,59.0,54.2,29.93,North,-999,0.0,0.0,84,0.00,,,0.00,338.00,VWS V14.01,2013-09-16 15:09:00,
2013-09-16 09:14:00,59.6,54.4,29.93,North,-999,0.0,0.0,83,0.00,,,0.00,352.00,VWS V14.01,2013-09-16 15:14:00,
2013-09-16 09:19:00,60.7,54.8,29.93,North,-999,0.0,0.0,81,0.00,,,0.00,366.00,VWS V14.01,2013-09-16 15:19:00,
2013-09-16 09:24:00,61.5,54.9,29.93,North,-999,0.0,0.0,79,0.00,,,0.00,380.00,VWS V14.01,2013-09-16 15:24:00,
2013-09-16 09:29:00,61.4,54.8,29.93,North,-999,0.0,4.0,79,0.00,,,0.00,394.00,VWS V14.01,2013-09-16 15:29:00,
2013-09-16 09:34:00,61.2,54.3,29.93,North,-999,4.0,6.0,78,0.00,,,0.00,410.00,VWS V14.01,2013-09-16 15:34:00,
2013-09-16 09:39:00,60.9,54.3,29.93,North,-999,0.0,8.0,79,0.00,,,0.00,424.00,VWS V14.01,2013-09-16 15:39:00,
2013-09-16 09:44:00,61.4,54.8,29.93,North,-999,0.0,8.0,79,0.00,,,0.00,436.00,VWS V14.01,2013-09-16 15:44:00,
2013-09-16 09:49:00,61.9,55.3,29.93,North,-999,0.0,4.0,79,0.00,,,0.00,448.00,VWS V14.01,2013-09-16 15:49:00,
2013-09-16 09:54:00,62.3,55.0,29.93,North,-999,0.0,4.0,77,0.00,,,0.00,462.00,VWS V14.01,2013-09-16 15:54:00,
2013-09-16 09:59:00,62.6,55.3,29.92,North,-999,0.0,7.0,77,0.00,,,0.00,475.00,VWS V14.01,2013-09-16 15:59:00,
2013-09-16 10:04:00,62.9,55.6,29.93,North,-999,0.0,7.0,77,0.00,,,0.00,489.00,VWS V14.01,2013-09-16 16:04:00,
2013-09-16 10:09:00,63.4,55.7,29.93,North,-999,4.0,5.0,76,0.00,,,0.00,499.00,VWS V14.01,2013-09-16 16:09:00,
2013-09-16 10:14:00,63.9,55.8,29.93,North,-999,4.0,10.0,75,0.00,,,0.00,513.00,VWS V14.01,2013-09-16 16:14:00,
2013-09-16 10:19:00,64.5,56.0,29.92,North,-999,6.0,8.0,74,0.00,,,0.00,524.00,VWS V14.01,2013-09-16 16:19:00,
2013-09-16 10:24:00,64.9,56.0,29.93,North,-999,9.0,9.0,73,0.00,,,0.00,536.00,VWS V14.01,2013-09-16 16:24:00,
2013-09-16 10:29:00,65.7,56.0,29.92,North,-999,4.0,12.0,71,0.00,,,0.00,548.00,VWS V14.01,2013-09-16 16:29:00,
2013-09-16 10:34:00,66.5,56.8,29.92,North,-999,6.0,12.0,71,0.00,,,0.00,559.00,VWS V14.01,2013-09-16 16:34:00,
2013-09-16 10:39:00,66.9,56.4,29.92,North,-999,9.0,10.0,69,0.00,,,0.00,570.00,VWS V14.01,2013-09-16 16:39:00,
2013-09-16 10:44:00,67.0,56.5,29.92,North,-999,6.0,11.0,69,0.00,,,0.00,582.00,VWS V14.01,2013-09-16 16:44:00,
2013-09-16 10:49:00,67.5,57.0,29.92,North,-999,3.0,10.0,69,0.00,,,0.00,591.00,VWS V14.01,2013-09-16 16:49:00,
2013-09-16 10:54:00,67.6,56.3,29.92,North,-999,11.0,13.0,67,0.00,,,0.00,601.00,VWS V14.01,2013-09-16 16:54:00,
2013-09-16 10:58:00,67.8,56.9,29.92,North,-999,10.0,11.0,68,0.00,,,0.00,612.00,VWS V14.01,2013-09-16 16:58:00,
2013-09-16 11:03:00,68.3,56.9,29.92,North,-999,10.0,11.0,67,0.00,,,0.00,621.00,VWS V14.01,2013-09-16 17:03:00,
2013-09-16 11:08:00,68.6,56.8,29.91,North,-999,10.0,14.0,66,0.00,,,0.00,629.00,VWS V14.01,2013-09-16 17:08:00,
2013-09-16 11:13:00,69.0,57.2,29.92,North,-999,3.0,14.0,66,0.00,,,0.00,638.00,VWS V14.01,2013-09-16 17:13:00,
2013-09-16 11:18:00,69.3,57.0,29.91,North,-999,4.0,11.0,65,0.00,,,0.00,645.00,VWS V14.01,2013-09-16 17:18:00,
2013-09-16 11:23:00,69.5,57.7,29.91,North,-999,10.0,12.0,66,0.00,,,0.00,654.00,VWS V14.01,2013-09-16 17:23:00,
2013-09-16 11:28:00,69.5,56.4,29.91,North,-999,9.0,12.0,63,0.00,,,0.00,663.00,VWS V14.01,2013-09-16 17:28:00,
2013-09-16 11:33:00,69.4,56.3,29.91,North,-999,10.0,14.0,63,0.00,,,0.00,670.00,VWS V14.01,2013-09-16 17:33:00,
2013-09-16 11:38:00,69.5,57.2,29.91,North,-999,9.0,13.0,65,0.00,,,0.00,677.00,VWS V14.01,2013-09-16 17:38:00,
2013-09-16 11:43:00,69.5,56.8,29.91,North,-999,11.0,15.0,64,0.00,,,0.00,684.00,VWS V14.01,2013-09-16 17:43:00,
2013-09-16 11:48:00,69.8,57.1,29.91,North,-999,5.0,11.0,64,0.00,,,0.00,689.00,VWS V14.01,2013-09-16 17:48:00,
2013-09-16 11:53:00,70.4,57.2,29.91,North,-999,7.0,14.0,63,0.00,,,0.00,696.00,VWS V14.01,2013-09-16 17:53:00,
2013-09-16 11:58:00,70.5,56.4,29.91,North,-999,12.0,16.0,61,0.00,,,0.00,703.00,VWS V14.01,2013-09-16 17:58:00,
2013-09-16 12:03:00,70.7,57.5,29.90,North,-999,16.0,16.0,63,0.00,,,0.00,707.00,VWS V14.01,2013-09-16 18:03:00,
2013-09-16 12:08:00,70.6,56.1,29.90,North,-999,11.0,16.0,60,0.00,,,0.00,712.00,VWS V14.01,2013-09-16 18:08:00,
2013-09-16 12:13:00,70.8,56.7,29.90,North,-999,7.0,16.0,61,0.00,,,0.00,680.00,VWS V14.01,2013-09-16 18:13:00,
2013-09-16 12:18:00,71.3,56.7,29.90,North,-999,11.0,16.0,60,0.00,,,0.00,417.00,VWS V14.01,2013-09-16 18:18:00,
2013-09-16 12:23:00,71.3,56.7,29.90,North,-999,9.0,16.0,60,0.00,,,0.00,724.00,VWS V14.01,2013-09-16 18:23:00,
2013-09-16 12:28:00,71.5,56.4,29.90,North,-999,10.0,14.0,59,0.00,,,0.00,729.00,VWS V14.01,2013-09-16 18:28:00,
2013-09-16 12:33:00,71.8,56.2,29.89,North,-999,10.0,15.0,58,0.00,,,0.00,733.00,VWS V14.01,2013-09-16 18:33:00,
2013-09-16 12:38:00,72.4,57.3,29.89,North,-999,7.0,15.0,59,0.00,,,0.00,735.00,VWS V14.01,2013-09-16 18:38:00,
2013-09-16 12:43:00,72.2,57.1,29.89,North,-999,11.0,16.0,59,0.00,,,0.00,737.00,VWS V14.01,2013-09-16 18:43:00,
2013-09-16 12:48:00,72.3,56.7,29.89,North,-999,15.0,18.0,58,0.00,,,0.00,740.00,VWS V14.01,2013-09-16 18:48:00,
2013-09-16 12:53:00,72.6,57.0,29.89,North,-999,14.0,18.0,58,0.00,,,0.00,742.00,VWS V14.01,2013-09-16 18:53:00,
2013-09-16 12:58:00,72.6,56.5,29.89,North,-999,9.0,13.0,57,0.00,,,0.00,694.00,VWS V14.01,2013-09-16 18:58:00,
2013-09-16 13:03:00,72.7,56.1,29.89,North,-999,11.0,18.0,56,0.00,,,0.00,744.00,VWS V14.01,2013-09-16 19:03:00,
2013-09-16 13:08:00,72.7,56.1,29.88,North,-999,12.0,16.0,56,0.00,,,0.00,744.00,VWS V14.01,2013-09-16 19:08:00,
2013-09-16 13:13:00,73.1,57.0,29.88,North,-999,11.0,16.0,57,0.00,,,0.00,744.00,VWS V14.01,2013-09-16 19:13:00,
2013-09-16 13:18:00,73.3,57.2,29.88,North,-999,9.0,13.0,57,0.00,,,0.00,744.00,VWS V14.01,2013-09-16 19:18:00,
2013-09-16 13:23:00,73.7,56.0,29.88,North,-999,11.0,15.0,54,0.00,,,0.00,742.00,VWS V14.01,2013-09-16 19:23:00,
2013-09-16 13:28:00,73.9,56.7,29.88,North,-999,7.0,11.0,55,0.00,,,0.00,742.00,VWS V14.01,2013-09-16 19:28:00,
2013-09-16 13:33:00,74.1,56.4,29.87,North,-999,7.0,16.0,54,0.00,,,0.00,740.00,VWS V14.01,2013-09-16 19:33:00,
2013-09-16 13:38:00,74.3,56.1,29.88,North,-999,7.0,14.0,53,0.00,,,0.00,738.00,VWS V14.01,2013-09-16 19:38:00,
2013-09-16 13:43:00,74.4,56.7,29.87,North,-999,13.0,14.0,54,0.00,,,0.00,735.00,VWS V14.01,2013-09-16 19:43:00,
2013-09-16 13:48:00,74.6,56.4,29.87,North,-999,12.0,14.0,53,0.00,,,0.00,733.00,VWS V14.01,2013-09-16 19:48:00,
2013-09-16 13:53:00,74.8,56.0,29.87,North,-999,9.0,17.0,52,0.00,,,0.00,729.00,VWS V14.01,2013-09-16 19:53:00,
2013-09-16 13:58:00,75.1,55.8,29.87,North,-999,10.0,18.0,51,0.00,,,0.00,726.00,VWS V14.01,2013-09-16 19:58:00,
2013-09-16 14:03:00,75.1,56.3,29.86,North,-999,8.0,18.0,52,0.00,,,0.00,724.00,VWS V14.01,2013-09-16 20:03:00,
2013-09-16 14:08:00,75.4,56.0,29.86,North,-999,10.0,10.0,51,0.00,,,0.00,719.00,VWS V14.01,2013-09-16 20:08:00,
2013-09-16 14:13:00,76.0,56.6,29.86,North,-999,13.0,15.0,51,0.00,,,0.00,715.00,VWS V14.01,2013-09-16 20:13:00,
2013-09-16 14:18:00,75.9,55.4,29.86,North,-999,9.0,14.0,49,0.00,,,0.00,710.00,VWS V14.01,2013-09-16 20:18:00,
2013-09-16 14:23:00,75.8,55.9,29.86,North,-999,11.0,15.0,50,0.00,,,0.00,705.00,VWS V14.01,2013-09-16 20:23:00,
2013-09-16 14:28:00,76.2,56.2,29.86,North,-999,10.0,15.0,50,0.00,,,0.00,698.00,VWS V14.01,2013-09-16 20:28:00,
2013-09-16 14:33:00,76.6,55.5,29.86,North,-999,9.0,15.0,48,0.00,,,0.00,691.00,VWS V14.01,2013-09-16 20:33:00,
2013-09-16 14:38:00,76.6,56.0,29.85,North,-999,14.0,14.0,49,0.00,,,0.00,615.00,VWS V14.01,2013-09-16 20:38:00,
2013-09-16 14:43:00,76.6,56.0,29.85,North,-999,12.0,16.0,49,0.00,,,0.00,679.00,VWS V14.01,2013-09-16 20:43:00,
2013-09-16 14:48:00,76.8,55.7,29.85,North,-999,10.0,11.0,48,0.00,,,0.00,671.00,VWS V14.01,2013-09-16 20:48:00,
2013-09-16 14:53:00,77.0,55.8,29.85,North,-999,11.0,16.0,48,0.00,,,0.00,647.00,VWS V14.01,2013-09-16 20:53:00,
2013-09-16 14:58:00,76.9,55.2,29.85,North,-999,11.0,12.0,47,0.00,,,0.00,657.00,VWS V14.01,2013-09-16 20:58:00,
2013-09-16 15:03:00,77.2,56.0,29.84,North,-999,6.0,13.0,48,0.00,,,0.00,650.00,VWS V14.01,2013-09-16 21:03:00,
2013-09-16 15:08:00,77.4,55.6,29.84,North,-999,8.0,10.0,47,0.00,,,0.00,643.00,VWS V14.01,2013-09-16 21:08:00,
2013-09-16 15:13:00,77.5,55.7,29.84,North,-999,14.0,17.0,47,0.00,,,0.00,633.00,VWS V14.01,2013-09-16 21:13:00,
2013-09-16 15:18:00,77.7,55.9,29.84,North,-999,12.0,12.0,47,0.00,,,0.00,626.00,VWS V14.01,2013-09-16 21:18:00,
2013-09-16 15:23:00,77.8,55.4,29.84,North,-999,11.0,15.0,46,0.00,,,0.00,619.00,VWS V14.01,2013-09-16 21:23:00,
2013-09-16 15:28:00,77.8,55.4,29.83,North,-999,10.0,10.0,46,0.00,,,0.00,615.00,VWS V14.01,2013-09-16 21:28:00,
2013-09-16 15:33:00,78.0,55.6,29.83,North,-999,15.0,16.0,46,0.00,,,0.00,608.00,VWS V14.01,2013-09-16 21:33:00,
2013-09-16 15:38:00,78.0,55.6,29.83,North,-999,7.0,10.0,46,0.00,,,0.00,612.00,VWS V14.01,2013-09-16 21:38:00,
2013-09-16 15:43:00,78.2,55.1,29.82,North,-999,10.0,17.0,45,0.00,,,0.00,601.00,VWS V14.01,2013-09-16 21:43:00,
2013-09-16 15:48:00,78.3,55.8,29.82,North,-999,11.0,15.0,46,0.00,,,0.00,585.00,VWS V14.01,2013-09-16 21:48:00,
2013-09-16 15:53:00,78.4,55.3,29.82,North,-999,7.0,18.0,45,0.00,,,0.00,564.00,VWS V14.01,2013-09-16 21:53:00,
2013-09-16 15:58:00,78.6,55.5,29.82,North,-999,16.0,16.0,45,0.00,,,0.00,557.00,VWS V14.01,2013-09-16 21:58:00,
2013-09-16 16:03:00,78.4,54.7,29.82,North,-999,11.0,19.0,44,0.00,,,0.00,540.00,VWS V14.01,2013-09-16 22:03:00,
2013-09-16 16:08:00,78.4,55.3,29.82,North,-999,5.0,5.0,45,0.00,,,0.00,517.00,VWS V14.01,2013-09-16 22:08:00,
2013-09-16 16:13:00,79.0,55.2,29.82,North,-999,13.0,17.0,44,0.00,,,0.00,504.00,VWS V14.01,2013-09-16 22:13:00,
2013-09-16 16:18:00,79.1,54.7,29.82,North,-999,10.0,12.0,43,0.00,,,0.00,492.00,VWS V14.01,2013-09-16 22:18:00,
2013-09-16 16:23:00,78.9,53.9,29.82,North,-999,7.0,17.0,42,0.00,,,0.00,478.00,VWS V14.01,2013-09-16 22:23:00,
2013-09-16 16:28:00,79.1,54.1,29.81,North,-999,11.0,14.0,42,0.00,,,0.00,408.00,VWS V14.01,2013-09-16 22:28:00,
2013-09-16 16:33:00,79.1,54.1,29.81,North,-999,15.0,16.0,42,0.00,,,0.00,448.00,VWS V14.01,2013-09-16 22:33:00,
2013-09-16 16:38:00,79.0,54.6,29.81,North,-999,15.0,15.0,43,0.00,,,0.00,432.00,VWS V14.01,2013-09-16 22:38:00,
2013-09-16 16:43:00,79.0,54.6,29.81,North,-999,8.0,16.0,43,0.00,,,0.00,424.00,VWS V14.01,2013-09-16 22:43:00,
2013-09-16 16:48:00,79.0,54.0,29.81,North,-999,13.0,13.0,42,0.00,,,0.00,341.00,VWS V14.01,2013-09-16 22:48:00,
2013-09-16 16:53:00,78.9,53.9,29.81,North,-999,14.0,15.0,42,0.00,,,0.00,410.00,VWS V14.01,2013-09-16 22:53:00,
2013-09-16 16:58:00,78.9,53.2,29.81,North,-999,12.0,16.0,41,0.00,,,0.00,387.00,VWS V14.01,2013-09-16 22:58:00,
2013-09-16 17:02:00,78.9,53.9,29.81,North,-999,6.0,17.0,42,0.00,,,0.00,366.00,VWS V14.01,2013-09-16 23:02:00,
2013-09-16 17:07:00,78.9,53.9,29.81,North,-999,6.0,13.0,42,0.00,,,0.00,355.00,VWS V14.01,2013-09-16 23:07:00,
2013-09-16 17:12:00,78.8,53.1,29.81,North,-999,14.0,17.0,41,0.00,,,0.00,352.00,VWS V14.01,2013-09-16 23:12:00,
2013-09-16 17:17:00,78.5,53.5,29.80,North,-999,9.0,13.0,42,0.00,,,0.00,46.00,VWS V14.01,2013-09-16 23:17:00,
2013-09-16 17:22:00,78.2,53.2,29.81,North,-999,11.0,13.0,42,0.00,,,0.00,54.00,VWS V14.01,2013-09-16 23:22:00,
2013-09-16 17:27:00,77.9,53.6,29.80,North,-999,7.0,11.0,43,0.00,,,0.00,67.00,VWS V14.01,2013-09-16 23:27:00,
2013-09-16 17:32:00,77.8,52.9,29.81,North,-999,12.0,12.0,42,0.00,,,0.00,100.00,VWS V14.01,2013-09-16 23:32:00,
2013-09-16 17:37:00,77.8,54.2,29.81,North,-999,6.0,6.0,44,0.00,,,0.00,306.00,VWS V14.01,2013-09-16 23:37:00,
2013-09-16 17:42:00,78.1,54.4,29.81,North,-999,5.0,9.0,44,0.00,,,0.00,299.00,VWS V14.01,2013-09-16 23:42:00,
2013-09-16 17:47:00,78.5,54.8,29.81,North,-999,4.0,4.0,44,0.00,,,0.00,279.00,VWS V14.01,2013-09-16 23:47:00,
2013-09-16 17:52:00,78.8,53.8,29.81,North,-999,4.0,10.0,42,0.00,,,0.00,262.00,VWS V14.01,2013-09-16 23:52:00,
2013-09-16 17:57:00,79.2,53.5,29.80,North,-999,6.0,9.0,41,0.00,,,0.00,244.00,VWS V14.01,2013-09-16 23:57:00,
2013-09-16 18:02:00,79.3,53.6,29.80,North,-999,6.0,12.0,41,0.00,,,0.00,207.00,VWS V14.01,2013-09-17 00:02:00,
2013-09-16 18:07:00,79.1,53.4,29.80,North,-999,9.0,9.0,41,0.00,,,0.00,167.00,VWS V14.01,2013-09-17 00:07:00,
2013-09-16 18:12:00,79.0,52.6,29.80,North,-999,10.0,12.0,40,0.00,,,0.00,137.00,VWS V14.01,2013-09-17 00:12:00,
2013-09-16 18:17:00,78.8,53.1,29.80,North,-999,11.0,11.0,41,0.00,,,0.00,118.00,VWS V14.01,2013-09-17 00:17:00,
2013-09-16 18:22:00,78.5,52.9,29.80,North,-999,7.0,12.0,41,0.00,,,0.00,88.00,VWS V14.01,2013-09-17 00:22:00,
2013-09-16 18:27:00,78.2,53.9,29.80,North,-999,5.0,6.0,43,0.00,,,0.00,30.00,VWS V14.01,2013-09-17 00:27:00,
2013-09-16 18:32:00,77.7,54.1,29.80,North,-999,4.0,7.0,44,0.00,,,0.00,25.00,VWS V14.01,2013-09-17 00:32:00,
2013-09-16 18:37:00,77.3,54.3,29.80,North,-999,0.0,4.0,45,0.00,,,0.00,21.00,VWS V14.01,2013-09-17 00:37:00,
2013-09-16 18:42:00,76.8,54.5,29.80,North,-999,1.0,9.0,46,0.00,,,0.00,16.00,VWS V14.01,2013-09-17 00:42:00,
2013-09-16 18:47:00,76.3,54.0,29.80,North,-999,9.0,10.0,46,0.00,,,0.00,14.00,VWS V14.01,2013-09-17 00:47:00,
2013-09-16 18:52:00,75.9,54.2,29.80,North,-999,1.0,10.0,47,0.00,,,0.00,14.00,VWS V14.01,2013-09-17 00:52:00,
2013-09-16 18:57:00,75.6,54.0,29.80,North,-999,7.0,10.0,47,0.00,,,0.00,16.00,VWS V14.01,2013-09-17 00:57:00,
2013-09-16 19:02:00,75.1,54.1,29.80,North,-999,1.0,10.0,48,0.00,,,0.00,14.00,VWS V14.01,2013-09-17 01:02:00,
2013-09-16 19:07:00,74.5,54.1,29.80,North,-999,3.0,4.0,49,0.00,,,0.00,14.00,VWS V14.01,2013-09-17 01:07:00,
2013-09-16 19:12:00,73.8,54.0,29.80,North,-999,1.0,7.0,50,0.00,,,0.00,9.00,VWS V14.01,2013-09-17 01:12:00,
2013-09-16 19:17:00,73.1,54.5,29.80,North,-999,0.0,0.0,52,0.00,,,0.00,5.00,VWS V14.01,2013-09-17 01:17:00,
2013-09-16 19:22:00,72.9,53.7,29.80,North,-999,3.0,7.0,51,0.00,,,0.00,0.00,VWS V14.01,2013-09-17 01:22:00,
2013-09-16 19:27:00,72.9,53.7,29.80,North,-999,4.0,5.0,51,0.00,,,0.00,0.00,VWS V14.01,2013-09-17 01:27:00,
2013-09-16 19:32:00,72.8,53.6,29.80,North,-999,0.0,5.0,51,0.00,,,0.00,0.00,VWS V14.01,2013-09-17 01:32:00,
2013-09-16 19:37:00,72.7,53.5,29.80,North,-999,0.0,2.0,51,0.00,,,0.00,0.00,VWS V14.01,2013-09-17 01:37:00,
2013-09-16 19:42:00,72.7,53.5,29.80,North,-999,0.0,2.0,51,0.00,,,0.00,0.00,VWS V14.01,2013-09-17 01:42:00,
2013-09-16 19:47:00,72.7,53.5,29.81,North,-999,0.0,0.0,51,0.00,,,0.00,0.00,VWS V14.01,2013-09-17 01:47:00,
2013-09-16 19:52:00,72.7,53.5,29.81,North,-999,0.0,0.0,51,0.00,,,0.00,0.00,VWS V14.01,2013-09-17 01:52:00,
2013-09-16 19:57:00,72.4,55.8,29.81,North,-999,0.0,0.0,56,0.00,,,0.00,0.00,VWS V14.01,2013-09-17 01:57:00,
2013-09-16 20:02:00,71.0,56.0,29.81,North,-999,0.0,0.0,59,0.00,,,0.00,0.00,VWS V14.01,2013-09-17 02:02:00,
2013-09-16 20:07:00,69.9,55.8,29.81,North,-999,0.0,0.0,61,0.00,,,0.00,0.00,VWS V14.01,2013-09-17 02:07:00,
2013-09-16 20:12:00,69.5,55.5,29.81,North,-999,0.0,0.0,61,0.00,,,0.00,0.00,VWS V14.01,2013-09-17 02:12:00,
2013-09-16 20:17:00,69.3,55.7,29.81,North,-999,0.0,0.0,62,0.00,,,0.00,0.00,VWS V14.01,2013-09-17 02:17:00,
2013-09-16 20:22:00,69.2,55.2,29.81,North,-999,0.0,0.0,61,0.00,,,0.00,0.00,VWS V14.01,2013-09-17 02:22:00,
2013-09-16 20:27:00,69.0,55.5,29.81,North,-999,2.0,2.0,62,0.00,,,0.00,0.00,VWS V14.01,2013-09-17 02:27:00,
2013-09-16 20:32:00,68.6,55.1,29.81,North,-999,0.0,3.0,62,0.00,,,0.00,0.00,VWS V14.01,2013-09-17 02:32:00,
2013-09-16 20:37:00,68.5,55.4,29.81,North,-999,0.0,0.0,63,0.00,,,0.00,0.00,VWS V14.01,2013-09-17 02:37:00,
2013-09-16 20:42:00,68.3,55.2,29.81,North,-999,0.0,0.0,63,0.00,,,0.00,0.00,VWS V14.01,2013-09-17 02:42:00,
2013-09-16 20:47:00,68.1,55.0,29.81,North,-999,0.0,0.0,63,0.00,,,0.00,0.00,VWS V14.01,2013-09-17 02:47:00,
2013-09-16 20:52:00,68.2,55.1,29.82,North,-999,0.0,0.0,63,0.00,,,0.00,0.00,VWS V14.01,2013-09-17 02:52:00,
2013-09-16 20:57:00,68.7,53.8,29.82,North,-999,11.0,11.0,59,0.00,,,0.00,0.00,VWS V14.01,2013-09-17 02:57:00,
2013-09-16 21:02:00,69.7,54.3,29.82,North,-999,0.0,11.0,58,0.00,,,0.00,0.00,VWS V14.01,2013-09-17 03:02:00,
2013-09-16 21:07:00,69.9,54.0,29.82,North,-999,0.0,0.0,57,0.00,,,0.00,0.00,VWS V14.01,2013-09-17 03:07:00,
2013-09-16 21:12:00,69.9,53.5,29.82,North,-999,0.0,0.0,56,0.00,,,0.00,0.00,VWS V14.01,2013-09-17 03:12:00,
2013-09-16 21:17:00,69.5,54.6,29.82,North,-999,0.0,0.0,59,0.00,,,0.00,0.00,VWS V14.01,2013-09-17 03:17:00,
2013-09-16 21:22:00,68.6,54.6,29.82,North,-999,0.0,0.0,61,0.00,,,0.00,0.00,VWS V14.01,2013-09-17 03:22:00,
2013-09-16 21:27:00,67.9,54.0,29.82,North,-999,0.0,0.0,61,0.00,,,0.00,0.00,VWS V14.01,2013-09-17 03:27:00,
2013-09-16 21:32:00,67.9,53.1,29.82,North,-999,0.0,0.0,59,0.00,,,0.00,0.00,VWS V14.01,2013-09-17 03:32:00,
2013-09-16 21:37:00,68.2,53.3,29.82,North,-999,0.0,0.0,59,0.00,,,0.00,0.00,VWS V14.01,2013-09-17 03:37:00,
2013-09-16 21:42:00,67.9,54.0,29.82,North,-999,0.0,0.0,61,0.00,,,0.00,0.00,VWS V14.01,2013-09-17 03:42:00,
2013-09-16 21:47:00,67.2,53.3,29.82,North,-999,0.0,0.0,61,0.00,,,0.00,0.00,VWS V14.01,2013-09-17 03:47:00,
2013-09-16 21:52:00,66.9,53.5,29.82,North,-999,0.0,0.0,62,0.00,,,0.00,0.00,VWS V14.01,2013-09-17 03:52:00,
2013-09-16 21:57:00,66.6,54.1,29.82,North,-999,0.0,0.0,64,0.00,,,0.00,0.00,VWS V14.01,2013-09-17 03:57:00,
2013-09-16 22:01:00,65.7,54.0,29.82,North,-999,0.0,0.0,66,0.00,,,0.00,0.00,VWS V14.01,2013-09-17 04:01:00,
2013-09-16 22:06:00,64.9,54.1,29.82,North,-999,0.0,0.0,68,0.00,,,0.00,0.00,VWS V14.01,2013-09-17 04:06:00,
2013-09-16 22:11:00,64.7,53.1,29.82,North,-999,0.0,0.0,66,0.00,,,0.00,0.00,VWS V14.01,2013-09-17 04:11:00,
2013-09-16 22:16:00,65.0,53.0,29.82,North,-999,0.0,0.0,65,0.00,,,0.00,0.00,VWS V14.01,2013-09-17 04:16:00,
2013-09-16 22:21:00,65.2,53.6,29.82,North,-999,0.0,0.0,66,0.00,,,0.00,0.00,VWS V14.01,2013-09-17 04:21:00,
2013-09-16 22:26:00,65.2,54.0,29.82,North,-999,3.0,3.0,67,0.00,,,0.00,0.00,VWS V14.01,2013-09-17 04:26:00,
2013-09-16 22:31:00,65.4,52.5,29.82,North,-999,4.0,5.0,63,0.00,,,0.00,0.00,VWS V14.01,2013-09-17 04:31:00,
2013-09-16 22:36:00,65.8,52.0,29.82,North,-999,0.0,5.0,61,0.00,,,0.00,0.00,VWS V14.01,2013-09-17 04:36:00,
2013-09-16 22:41:00,65.8,53.3,29.82,North,-999,0.0,0.0,64,0.00,,,0.00,0.00,VWS V14.01,2013-09-17 04:41:00,
2013-09-16 22:46:00,65.2,52.7,29.82,North,-999,0.0,0.0,64,0.00,,,0.00,0.00,VWS V14.01,2013-09-17 04:46:00,
2013-09-16 22:51:00,65.0,52.5,29.83,North,-999,0.0,0.0,64,0.00,,,0.00,0.00,VWS V14.01,2013-09-17 04:51:00,
2013-09-16 22:56:00,64.9,53.7,29.83,North,-999,0.0,0.0,67,0.00,,,0.00,0.00,VWS V14.01,2013-09-17 04:56:00,
2013-09-16 23:01:00,64.5,53.3,29.83,North,-999,0.0,0.0,67,0.00,,,0.00,0.00,VWS V14.01,2013-09-17 05:01:00,
2013-09-16 23:06:00,64.4,52.8,29.83,North,-999,0.0,0.0,66,0.00,,,0.00,0.00,VWS V14.01,2013-09-17 05:06:00,
2013-09-16 23:10:00,64.5,53.3,29.82,North,-999,2.0,5.0,67,0.00,,,0.00,0.00,VWS V14.01,2013-09-17 05:10:00,
2013-09-16 23:15:00,64.3,53.1,29.83,North,-999,0.0,5.0,67,0.00,,,0.00,0.00,VWS V14.01,2013-09-17 05:15:00,
2013-09-16 23:20:00,64.2,52.2,29.82,North,-999,0.0,0.0,65,0.00,,,0.00,0.00,VWS V14.01,2013-09-17 05:20:00,
2013-09-16 23:25:00,64.0,52.0,29.82,North,-999,0.0,0.0,65,0.00,,,0.00,0.00,VWS V14.01,2013-09-17 05:25:00,
2013-09-16 23:30:00,63.8,51.0,29.82,North,-999,0.0,0.0,63,0.00,,,0.00,0.00,VWS V14.01,2013-09-17 05:30:00,
2013-09-16 23:35:00,63.9,51.9,29.82,North,-999,0.0,0.0,65,0.00,,,0.00,0.00,VWS V14.01,2013-09-17 05:35:00,
2013-09-16 23:40:00,63.8,51.0,29.82,North,-999,3.0,5.0,63,0.00,,,0.00,0.00,VWS V14.01,2013-09-17 05:40:00,
2013-09-16 23:45:00,64.0,52.0,29.82,North,-999,0.0,5.0,65,0.00,,,0.00,0.00,VWS V14.01,2013-09-17 05:45:00,
2013-09-16 23:50:00,63.8,51.4,29.82,North,-999,0.0,0.0,64,0.00,,,0.00,0.00,VWS V14.01,2013-09-17 05:50:00,
2013-09-16 23:55:00,63.8,51.0,29.82,North,-999,0.0,0.0,63,0.00,,,0.00,0.00,VWS V14.01,2013-09-17 05:55:00,